Location: Gunung Kajang
(2.4167°N, 113.7167°E)
Time: 16:34:39
(UTC+00:00)

Cosmos 2084 - Pass Details

Date: 29 May 2022
Orbit: 506 x 671 km, 62.8° (Epoch: 28 June)

Event Time Altitude Azimuth Distance (km) Brightness Sun altitude
Exits shadow 21:18:01 23° 258° (WSW) 1,145 4.3 -14.0°
Maximum altitude 21:19:24 29° 294° (WNW) 972 4.2 -13.7°
Drops below altitude 10° 21:22:48 10° 355° (N) 1,729 6.1 -12.9°
Sets 21:25:08 0° 7° (N) 2,600 7.2 -12.4°
